Regional Weather Roundup
Issued by NWS

Home | Current Version | Previous Version | Text Only | Print | Product List | Glossary On
Versions: 1 2 3 4 5 6 7 8 9 10 11 12 13 14 15 16 17 18 19 20 21 22 23 24 25 26 27 28 29 30 31 32 33 34 35 36 37 38 39 40 41 42 43 44 45 46 47 48 49 50
000
ASUS44 KMEG 280110
RWRTN
TENNESSEE HOURLY STATE WEATHER ROUNDUP
NATIONAL WEATHER SERVICE MEMPHIS TN
800 PM CDT MON JUL 27 2015

TNZ002-004-019-021-049-052-054-088>092-280200-
WEST TENNESSEE

CITY           SKY/WX    TMP DP  RH WIND       PRES   REMARKS
MEMPHIS INTL   PTCLDY    89  74  60 SW3       29.92R HX  98
NWS MEMPHIS      N/A     89 N/A N/A MISG        N/A
JACKSON        CLEAR     86  78  77 CALM      29.93R HX  98
DYERSBURG        N/A    N/A N/A N/A MISG        N/A
PARIS          CLEAR     82  77  83 CALM      29.95R HX  91
LEXINGTON      CLEAR     82  79  89 CALM      29.94R HX  93
$$

TNZ008-025-027-028-033-062-065-066-280200-
NORTH MIDDLE TENNESSEE

CITY           SKY/WX    TMP DP  RH WIND       PRES   REMARKS
NASHVILLE      MOCLDY    88  74  63 CALM      29.95R HX  96
CLARKSVILLE    PTCLDY    80  71  74 SE7       29.94S
SMYRNA         MOCLDY    88  74  63 CALM      29.95R HX  96
COOKEVILLE     CLEAR     82  79  89 CALM      29.98R HX  93
CROSSVILLE     PTCLDY    79  72  79 CALM      30.05R
$$

TNZ061-075-076-078-094-096-097-280200-
SOUTH MIDDLE TENNESSEE

CITY           SKY/WX    TMP DP  RH WIND       PRES   REMARKS
FAYETTEVILLE   CLEAR     86  70  58 CALM      29.98R HX  90
TULLAHOMA        N/A     84  75  74 CALM      30.00R HX  92
WINCHESTER     MOCLDY    81  75  83 CALM      29.98R
MCMINNVILLE    PTCLDY    82  77  83 CALM      29.99R HX  91
COLUMBIA       CLEAR     90  75  62 CALM      29.94S HX 100
SHELBYVILLE    CLEAR     90  73  58 CALM      29.97R HX  98
$$

TNZ017-018-042-046-047-280200-
NORTHEAST TENNESSEE

CITY           SKY/WX    TMP DP  RH WIND       PRES   REMARKS
TRI CITIES     PTCLDY    77  71  82 CALM      30.01R
ELIZABETHTON   CLEAR     73  70  88 CALM      30.02R
$$

TNZ012-013-036-069-073-074-280200-
CENTRAL EAST TENNESSEE

CITY           SKY/WX    TMP DP  RH WIND       PRES   REMARKS
KNOXVILLE      MOCLDY    85  72  65 W5        29.97R HX  91
OAK RIDGE      MOCLDY    83  73  72 CALM      29.99R
GATLINBURG     CLEAR     81  72  74 CALM      29.98R
MORRISTOWN     CLEAR     79  73  83 CALM      30.02R
$$

TNZ083-085-099-280200-
SOUTHEAST TENNESSEE

CITY           SKY/WX    TMP DP  RH WIND       PRES   REMARKS
CHATTANOOGA    MOCLDY    87  73  62 NE5       29.96R HX  94
$$

SKY/WX REPORTED AS FAIR MEANS FEW OR NO CLOUDS BELOW
12 THOUSAND FEET.



USA.gov is the U.S. government's official web portal to all federal, state and local government web resources and services.